{"data":{"norad_id":67188,"intl_designator":"2025-303AB","name":"STARLINK-35675","alt_names":[],"object_type":"PAYLOAD","status":"ACTIVE","operator":null,"country":"US","launch_date":"2025-12-17","launch_site_code":"AFETR","launch_vehicle":null,"mission":null,"orbit_class":"UNKNOWN","rcs_meters":null,"size_class":null,"mass_kg":null,"dimensions":null,"purposes":["comms"],"wikipedia_slug":null,"has_3d_model":false,"image_url":null,"decayed_at":null,"tle_current":{"epoch":"2026-09-20T08:50:54.313152Z","epoch_age_seconds":89874,"freshness":"FRESH","line1":"1 67188U 25303AB  26263.36868418  .00010627  00000+0  39504-3 0  9995","line2":"2 67188  43.0006 291.7127 0000413 249.4726 110.6081 15.27587460 42509","mean_motion":15.2758746,"eccentricity":4.13e-5,"inclination_deg":43.0006,"raan_deg":291.7127,"arg_perigee_deg":249.4726,"mean_anomaly_deg":110.6081,"bstar":0.00039504,"rev_number":4250,"period_min":94.26628836034,"perigee_km":482.74339214362,"apogee_km":483.31012427005,"semimajor_km":6861.1637582068,"source":"CELESTRAK","updated_at":"2026-09-21T09:00:36.133812Z"}}}